| time (UTC) | temp F | wind direction | speed MPH | gust MPH | rain 1hr in | rain 24hr in | rain mn in | humidity % | barometer mb |
| 20260831024505 | 66 | 0 | 0.0 | 0.0 | 0.00 | 0.00 | 0.00 | 97 | 1022.3 |
| 20260831024005 | 66 | 0 | 0.0 | 0.0 | 0.00 | 0.00 | 0.00 | 97 | 1022.3 |
| 20260831023505 | 66 | 0 | 0.0 | 0.0 | 0.00 | 0.00 | 0.00 | 97 | 1022.3 |
| 20260831023005 | 66 | 0 | 0.0 | 0.0 | 0.00 | 0.00 | 0.00 | 97 | 1022.2 |
| 20260831022505 | 66 | 0 | 0.0 | 0.0 | 0.00 | 0.00 | 0.00 | 97 | 1022.3 |
| 20260831022005 | 66 | 0 | 0.0 | 0.0 | 0.00 | 0.00 | 0.00 | 97 | 1022.3 |
| 20260831021505 | 66 | 0 | 0.0 | 0.0 | 0.00 | 0.00 | 0.00 | 97 | 1022.3 |
| 20260831021005 | 66 | 0 | 0.0 | 0.0 | 0.00 | 0.00 | 0.00 | 97 | 1022.4 |
| 20260831020526 | 66 | 0 | 0.0 | 0.0 | 0.00 | 0.00 | 0.00 | 97 | 1022.4 |
| 20260831020026 | 66 | 0 | 0.0 | 0.0 | 0.00 | 0.00 | 0.00 | 97 | 1022.5 |
| 20260831015505 | 66 | 0 | 0.0 | 0.0 | 0.00 | 0.00 | 0.00 | 97 | 1022.5 |
| 20260831015005 | 66 | 0 | 0.0 | 0.0 | 0.00 | 0.00 | 0.00 | 97 | 1022.3 |
| 20260831014505 | 66 | 0 | 0.0 | 0.0 | 0.00 | 0.00 | 0.00 | 97 | 1022.3 |
| 20260831014005 | 66 | 0 | 0.0 | 0.0 | 0.00 | 0.00 | 0.00 | 97 | 1022.4 |
| 20260831013504 | 66 | 0 | 0.0 | 0.0 | 0.00 | 0.00 | 0.00 | 96 | 1022.4 |
| 20260831013004 | 66 | 0 | 0.0 | 0.0 | 0.00 | 0.00 | 0.00 | 96 | 1022.3 |
| 20260831012526 | 66 | 0 | 0.0 | 0.0 | 0.00 | 0.00 | 0.00 | 96 | 1022.2 |
| 20260831012005 | 66 | 0 | 0.0 | 0.0 | 0.00 | 0.00 | 0.00 | 96 | 1022.0 |
| 20260831011505 | 66 | 0 | 0.0 | 0.0 | 0.00 | 0.00 | 0.00 | 96 | 1022.1 |
| 20260831011005 | 67 | 0 | 0.0 | 0.0 | 0.00 | 0.00 | 0.00 | 96 | 1022.0 |
| 20260831010504 | 67 | 0 | 0.0 | 0.0 | 0.00 | 0.00 | 0.00 | 96 | 1022.0 |
| 20260831010025 | 67 | 0 | 0.0 | 0.0 | 0.00 | 0.00 | 0.00 | 96 | 1022.0 |
| 20260831005504 | 67 | 0 | 0.0 | 0.0 | 0.00 | 0.00 | 0.00 | 96 | 1021.9 |
| 20260831005005 | 67 | 0 | 0.0 | 0.0 | 0.00 | 0.00 | 0.00 | 96 | 1021.7 |
| 20260831004504 | 67 | 0 | 0.0 | 0.0 | 0.00 | 0.00 | 0.00 | 96 | 1021.7 |
| 20260831004026 | 67 | 0 | 0.0 | 0.0 | 0.00 | 0.00 | 0.00 | 96 | 1021.7 |
| 20260831003504 | 67 | 0 | 0.0 | 0.0 | 0.00 | 0.00 | 0.00 | 96 | 1021.5 |
| 20260831003005 | 67 | 0 | 0.0 | 0.0 | 0.00 | 0.00 | 0.00 | 96 | 1021.6 |
| 20260831002505 | 67 | 0 | 0.0 | 0.0 | 0.00 | 0.00 | 0.00 | 96 | 1021.4 |
| 20260831002004 | 67 | 0 | 0.0 | 0.0 | 0.00 | 0.00 | 0.00 | 96 | 1021.3 |
| 20260831001504 | 67 | 0 | 0.0 | 0.0 | 0.00 | 0.00 | 0.00 | 96 | 1021.1 |
| 20260831001005 | 67 | 0 | 0.0 | 0.0 | 0.00 | 0.00 | 0.00 | 95 | 1021.3 |
| 20260831000504 | 67 | 0 | 0.0 | 0.0 | 0.00 | 0.00 | 0.00 | 95 | 1021.2 |
| 20260831000004 | 67 | 0 | 0.0 | 0.0 | 0.00 | 0.00 | 0.00 | 95 | 1021.1 |
| 20260830235505 | 67 | 0 | 0.0 | 0.0 | 0.00 | 0.00 | 0.00 | 95 | 1021.0 |
| 20260830235005 | 67 | 0 | 0.0 | 0.0 | 0.00 | 0.00 | 0.00 | 95 | 1021.0 |
| 20260830234504 | 68 | 0 | 0.0 | 0.0 | 0.00 | 0.00 | 0.00 | 95 | 1021.2 |
| 20260830234026 | 68 | 0 | 0.0 | 0.0 | 0.00 | 0.00 | 0.00 | 95 | 1021.2 |
| 20260830233504 | 68 | 0 | 0.0 | 0.0 | 0.00 | 0.00 | 0.00 | 95 | 1021.0 |
| 20260830233005 | 68 | 0 | 0.0 | 0.0 | 0.00 | 0.00 | 0.00 | 95 | 1021.0 |
| 20260830232504 | 68 | 0 | 0.0 | 0.0 | 0.00 | 0.00 | 0.00 | 95 | 1021.0 |
| 20260830232004 | 68 | 0 | 0.0 | 0.0 | 0.00 | 0.00 | 0.00 | 95 | 1020.9 |
| 20260830231504 | 68 | 0 | 0.0 | 0.0 | 0.00 | 0.00 | 0.00 | 95 | 1021.1 |
| 20260830231004 | 68 | 0 | 0.0 | 0.0 | 0.00 | 0.00 | 0.00 | 95 | 1021.1 |
| 20260830230504 | 68 | 0 | 0.0 | 0.0 | 0.00 | 0.00 | 0.00 | 94 | 1021.1 |
| 20260830230004 | 68 | 0 | 0.0 | 0.0 | 0.00 | 0.00 | 0.00 | 94 | 1021.1 |
| 20260830225505 | 68 | 0 | 0.0 | 0.0 | 0.00 | 0.00 | 0.00 | 94 | 1021.2 |
| 20260830225025 | 68 | 0 | 0.0 | 0.0 | 0.00 | 0.00 | 0.00 | 94 | 1021.3 |
| 20260830224504 | 68 | 0 | 0.0 | 0.0 | 0.00 | 0.00 | 0.00 | 94 | 1021.1 |
| 20260830224025 | 68 | 0 | 0.0 | 0.0 | 0.00 | 0.00 | 0.00 | 93 | 1021.2 |
| 20260830223504 | 69 | 164 | 0.0 | 1.0 | 0.00 | 0.00 | 0.00 | 93 | 1021.0 |
| 20260830223004 | 69 | 164 | 0.0 | 3.0 | 0.00 | 0.00 | 0.00 | 92 | 1021.0 |
| 20260830222504 | 69 | 174 | 1.0 | 4.0 | 0.00 | 0.00 | 0.00 | 92 | 1021.1 |
| 20260830222004 | 70 | 184 | 0.0 | 4.0 | 0.00 | 0.00 | 0.00 | 91 | 1021.2 |
| 20260830221504 | 70 | 166 | 0.0 | 1.0 | 0.00 | 0.00 | 0.00 | 90 | 1021.3 |
| 20260830221004 | 70 | 196 | 1.0 | 6.0 | 0.00 | 0.00 | 0.00 | 90 | 1021.2 |
| 20260830220525 | 70 | 229 | 1.0 | 7.0 | 0.00 | 0.00 | 0.00 | 89 | 1021.2 |
| 20260830220004 | 71 | 272 | 3.0 | 7.0 | 0.00 | 0.00 | 0.00 | 88 | 1021.1 |
| 20260830215504 | 71 | 322 | 3.0 | 7.0 | 0.00 | 0.00 | 0.00 | 87 | 1021.2 |
| 20260830215004 | 71 | 312 | 3.0 | 13.0 | 0.00 | 0.00 | 0.00 | 87 | 1021.2 |
| 20260830214504 | 72 | 314 | 3.0 | 13.0 | 0.00 | 0.00 | 0.00 | 87 | 1021.1 |
| 20260830214005 | 72 | 309 | 3.0 | 7.0 | 0.00 | 0.00 | 0.00 | 85 | 1020.9 |
| 20260830213504 | 72 | 284 | 0.0 | 7.0 | 0.00 | 0.00 | 0.00 | 88 | 1020.7 |
| 20260830213025 | 73 | 0 | 0.0 | 0.0 | 0.00 | 0.00 | 0.00 | 87 | 1020.7 |
| 20260830212504 | 73 | 0 | 0.0 | 0.0 | 0.00 | 0.00 | 0.00 | 86 | 1020.5 |
| 20260830212004 | 73 | 0 | 0.0 | 0.0 | 0.00 | 0.00 | 0.00 | 85 | 1020.5 |
| 20260830211504 | 74 | 0 | 0.0 | 0.0 | 0.00 | 0.00 | 0.00 | 86 | 1020.4 |
| 20260830211004 | 74 | 0 | 0.0 | 0.0 | 0.00 | 0.00 | 0.00 | 85 | 1020.4 |
| 20260830210504 | 74 | 0 | 0.0 | 0.0 | 0.00 | 0.00 | 0.00 | 86 | 1020.3 |
| 20260830210025 | 74 | 0 | 0.0 | 0.0 | 0.00 | 0.00 | 0.00 | 85 | 1020.3 |
| 20260830205525 | 74 | 0 | 0.0 | 0.0 | 0.00 | 0.00 | 0.00 | 85 | 1020.3 |
| 20260830205004 | 74 | 0 | 0.0 | 0.0 | 0.00 | 0.00 | 0.00 | 83 | 1020.2 |
| 20260830204504 | 74 | 168 | 0.0 | 1.0 | 0.00 | 0.00 | 0.00 | 85 | 1020.4 |
| 20260830204004 | 74 | 160 | 0.0 | 1.0 | 0.00 | 0.00 | 0.00 | 85 | 1020.5 |
| 20260830203504 | 74 | 153 | 0.0 | 3.0 | 0.00 | 0.00 | 0.00 | 85 | 1020.3 |
| 20260830203004 | 74 | 177 | 0.0 | 3.0 | 0.00 | 0.00 | 0.00 | 83 | 1020.3 |
| 20260830202504 | 74 | 213 | 0.0 | 3.0 | 0.00 | 0.00 | 0.00 | 84 | 1020.3 |
| 20260830202004 | 74 | 213 | 0.0 | 3.0 | 0.00 | 0.00 | 0.00 | 84 | 1020.4 |
| 20260830201504 | 74 | 212 | 0.0 | 3.0 | 0.00 | 0.00 | 0.00 | 84 | 1020.3 |
| 20260830201004 | 74 | 216 | 0.0 | 3.0 | 0.00 | 0.00 | 0.00 | 84 | 1020.4 |
| 20260830200504 | 74 | 216 | 0.0 | 3.0 | 0.00 | 0.00 | 0.00 | 83 | 1020.3 |
| 20260830200025 | 74 | 213 | 0.0 | 3.0 | 0.00 | 0.00 | 0.00 | 86 | 1020.2 |
| 20260830195504 | 74 | 164 | 0.0 | 3.0 | 0.00 | 0.00 | 0.00 | 83 | 1020.4 |
| 20260830195004 | 75 | 158 | 0.0 | 3.0 | 0.00 | 0.00 | 0.00 | 83 | 1020.4 |
| 20260830194504 | 75 | 140 | 0.0 | 1.0 | 0.00 | 0.00 | 0.00 | 84 | 1020.5 |
| 20260830194004 | 75 | 140 | 0.0 | 1.0 | 0.00 | 0.00 | 0.00 | 83 | 1020.6 |
| 20260830193504 | 75 | 148 | 0.0 | 3.0 | 0.00 | 0.00 | 0.00 | 82 | 1020.6 |
| 20260830193025 | 75 | 154 | 0.0 | 3.0 | 0.00 | 0.00 | 0.00 | 83 | 1020.7 |
| 20260830192504 | 75 | 175 | 0.0 | 3.0 | 0.00 | 0.00 | 0.00 | 84 | 1020.6 |
| 20260830192004 | 75 | 171 | 0.0 | 3.0 | 0.00 | 0.00 | 0.00 | 83 | 1020.8 |
| 20260830191504 | 75 | 163 | 0.0 | 3.0 | 0.00 | 0.00 | 0.00 | 81 | 1020.9 |
| 20260830191025 | 75 | 161 | 0.0 | 3.0 | 0.00 | 0.00 | 0.00 | 84 | 1020.8 |
| 20260830190504 | 75 | 155 | 0.0 | 3.0 | 0.00 | 0.00 | 0.00 | 84 | 1020.8 |
| 20260830190004 | 75 | 147 | 0.0 | 3.0 | 0.00 | 0.00 | 0.00 | 81 | 1021.0 |
| 20260830185526 | 75 | 150 | 1.0 | 4.0 | 0.00 | 0.00 | 0.00 | 82 | 1021.1 |
| 20260830185004 | 75 | 164 | 1.0 | 6.0 | 0.00 | 0.00 | 0.00 | 83 | 1021.1 |
| 20260830184504 | 75 | 168 | 1.0 | 6.0 | 0.00 | 0.00 | 0.00 | 82 | 1021.1 |
| 20260830184025 | 74 | 159 | 1.0 | 6.0 | 0.00 | 0.00 | 0.00 | 81 | 1021.1 |
| 20260830183504 | 74 | 156 | 1.0 | 6.0 | 0.00 | 0.00 | 0.00 | 82 | 1021.2 |
| 20260830183004 | 74 | 156 | 0.0 | 4.0 | 0.00 | 0.00 | 0.00 | 82 | 1021.3 |
| 20260830182525 | 74 | 154 | 0.0 | 4.0 | 0.00 | 0.00 | 0.00 | 83 | 1021.2 |
| 20260830182004 | 74 | 181 | 0.0 | 1.0 | 0.00 | 0.00 | 0.00 | 84 | 1021.4 |
| 20260830181504 | 74 | 170 | 0.0 | 3.0 | 0.00 | 0.00 | 0.00 | 83 | 1021.5 |
| 20260830181004 | 74 | 150 | 0.0 | 3.0 | 0.00 | 0.00 | 0.00 | 83 | 1021.5 |
| 20260830180504 | 74 | 153 | 1.0 | 4.0 | 0.00 | 0.00 | 0.00 | 81 | 1021.5 |
| 20260830180004 | 75 | 156 | 1.0 | 4.0 | 0.00 | 0.00 | 0.00 | 81 | 1021.5 |
| 20260830175504 | 75 | 157 | 1.0 | 4.0 | 0.00 | 0.00 | 0.00 | 80 | 1021.6 |
| 20260830175025 | 75 | 170 | 1.0 | 6.0 | 0.00 | 0.00 | 0.00 | 79 | 1021.6 |
| 20260830174504 | 75 | 189 | 1.0 | 6.0 | 0.00 | 0.00 | 0.00 | 80 | 1021.8 |
| 20260830174004 | 76 | 185 | 1.0 | 6.0 | 0.00 | 0.00 | 0.00 | 79 | 1021.6 |
| 20260830173504 | 76 | 182 | 1.0 | 6.0 | 0.00 | 0.00 | 0.00 | 80 | 1021.6 |
| 20260830173004 | 76 | 179 | 1.0 | 4.0 | 0.00 | 0.00 | 0.00 | 80 | 1021.6 |
| 20260830172504 | 76 | 164 | 1.0 | 4.0 | 0.00 | 0.00 | 0.00 | 79 | 1021.5 |
| 20260830172004 | 76 | 153 | 1.0 | 4.0 | 0.00 | 0.00 | 0.00 | 77 | 1021.5 |
| 20260830171504 | 76 | 156 | 1.0 | 4.0 | 0.00 | 0.00 | 0.00 | 76 | 1021.6 |
| 20260830171004 | 76 | 164 | 3.0 | 7.0 | 0.00 | 0.00 | 0.00 | 77 | 1021.7 |
| 20260830170525 | 77 | 166 | 3.0 | 7.0 | 0.00 | 0.00 | 0.00 | 75 | 1021.6 |
| 20260830170004 | 76 | 185 | 1.0 | 7.0 | 0.00 | 0.00 | 0.00 | 80 | 1021.6 |
| 20260830165504 | 76 | 196 | 1.0 | 3.0 | 0.00 | 0.00 | 0.00 | 79 | 1021.8 |
| 20260830165025 | 75 | 177 | 1.0 | 3.0 | 0.00 | 0.00 | 0.00 | 78 | 1022.0 |
| 20260830164504 | 75 | 168 | 1.0 | 4.0 | 0.00 | 0.00 | 0.00 | 77 | 1021.8 |
| 20260830164004 | 75 | 161 | 1.0 | 4.0 | 0.00 | 0.00 | 0.00 | 82 | 1021.9 |
| 20260830163504 | 76 | 170 | 1.0 | 4.0 | 0.00 | 0.00 | 0.00 | 78 | 1021.9 |
| 20260830163004 | 76 | 172 | 1.0 | 4.0 | 0.00 | 0.00 | 0.00 | 76 | 1022.0 |
| 20260830162504 | 76 | 173 | 1.0 | 6.0 | 0.00 | 0.00 | 0.00 | 77 | 1022.1 |
| 20260830162004 | 76 | 184 | 1.0 | 6.0 | 0.00 | 0.00 | 0.00 | 77 | 1022.1 |
| 20260830161504 | 76 | 168 | 1.0 | 7.0 | 0.00 | 0.00 | 0.00 | 76 | 1022.2 |
| 20260830161004 | 76 | 163 | 1.0 | 7.0 | 0.00 | 0.00 | 0.00 | 77 | 1022.1 |
| 20260830160504 | 75 | 203 | 1.0 | 3.0 | 0.00 | 0.00 | 0.00 | 78 | 1022.2 |
| 20260830160004 | 75 | 214 | 1.0 | 6.0 | 0.00 | 0.00 | 0.00 | 80 | 1022.2 |
| 20260830155504 | 74 | 194 | 1.0 | 6.0 | 0.00 | 0.00 | 0.00 | 80 | 1022.2 |
| 20260830155004 | 74 | 171 | 1.0 | 6.0 | 0.00 | 0.00 | 0.00 | 79 | 1022.3 |
| 20260830154504 | 73 | 164 | 1.0 | 9.0 | 0.00 | 0.00 | 0.00 | 79 | 1022.4 |
| 20260830154004 | 73 | 183 | 1.0 | 9.0 | 0.00 | 0.00 | 0.00 | 81 | 1022.3 |
| 20260830153525 | 73 | 196 | 1.0 | 6.0 | 0.00 | 0.00 | 0.00 | 83 | 1022.3 |
| 20260830153004 | 72 | 198 | 1.0 | 7.0 | 0.00 | 0.00 | 0.00 | 86 | 1022.4 |
| 20260830152504 | 72 | 225 | 1.0 | 7.0 | 0.00 | 0.00 | 0.00 | 85 | 1022.3 |
| 20260830152004 | 71 | 201 | 1.0 | 13.0 | 0.00 | 0.00 | 0.00 | 85 | 1022.3 |
| 20260830151525 | 71 | 191 | 1.0 | 13.0 | 0.00 | 0.00 | 0.00 | 85 | 1022.3 |
| 20260830151004 | 71 | 173 | 1.0 | 7.0 | 0.00 | 0.00 | 0.00 | 84 | 1022.2 |
| 20260830150525 | 70 | 168 | 3.0 | 7.0 | 0.00 | 0.00 | 0.00 | 85 | 1022.2 |
| 20260830150004 | 70 | 174 | 3.0 | 7.0 | 0.00 | 0.00 | 0.00 | 86 | 1022.2 |
| 20260830145504 | 70 | 168 | 3.0 | 7.0 | 0.00 | 0.00 | 0.00 | 86 | 1022.3 |
| 20260830145025 | 70 | 165 | 1.0 | 7.0 | 0.00 | 0.00 | 0.00 | 85 | 1022.3 |
| 20260830144525 | 70 | 171 | 3.0 | 12.0 | 0.00 | 0.00 | 0.00 | 85 | 1022.2 |
| 20260830144004 | 69 | 168 | 3.0 | 13.0 | 0.00 | 0.00 | 0.00 | 84 | 1022.3 |
| 20260830143504 | 69 | 160 | 3.0 | 13.0 | 0.00 | 0.00 | 0.00 | 85 | 1022.3 |
| 20260830143004 | 68 | 148 | 3.0 | 7.0 | 0.00 | 0.00 | 0.00 | 85 | 1022.3 |
| 20260830142504 | 68 | 152 | 1.0 | 6.0 | 0.00 | 0.00 | 0.00 | 85 | 1022.4 |
| 20260830142025 | 68 | 169 | 1.0 | 6.0 | 0.00 | 0.00 | 0.00 | 85 | 1022.5 |
| 20260830141525 | 68 | 164 | 1.0 | 9.0 | 0.00 | 0.00 | 0.00 | 85 | 1022.5 |
| 20260830141004 | 68 | 164 | 1.0 | 9.0 | 0.00 | 0.00 | 0.00 | 84 | 1022.6 |
| 20260830140504 | 68 | 168 | 1.0 | 7.0 | 0.00 | 0.00 | 0.00 | 85 | 1022.7 |
| 20260830140004 | 68 | 159 | 1.0 | 7.0 | 0.00 | 0.00 | 0.00 | 85 | 1022.7 |
| 20260830135504 | 68 | 168 | 1.0 | 7.0 | 0.00 | 0.00 | 0.00 | 84 | 1022.8 |
| 20260830135004 | 67 | 176 | 1.0 | 7.0 | 0.00 | 0.00 | 0.00 | 84 | 1022.8 |
| 20260830134504 | 67 | 174 | 1.0 | 7.0 | 0.00 | 0.00 | 0.00 | 85 | 1022.9 |
| 20260830134004 | 67 | 167 | 1.0 | 4.0 | 0.00 | 0.00 | 0.00 | 85 | 1022.9 |
| 20260830133525 | 66 | 161 | 1.0 | 7.0 | 0.00 | 0.00 | 0.00 | 84 | 1022.8 |
| 20260830133004 | 65 | 162 | 1.0 | 7.0 | 0.00 | 0.00 | 0.00 | 84 | 1023.0 |
| 20260830132504 | 65 | 166 | 1.0 | 6.0 | 0.00 | 0.00 | 0.00 | 86 | 1023.0 |
| 20260830132004 | 64 | 175 | 1.0 | 6.0 | 0.00 | 0.00 | 0.00 | 87 | 1023.0 |
| 20260830131503 | 64 | 171 | 1.0 | 3.0 | 0.00 | 0.00 | 0.00 | 85 | 1023.0 |
| 20260830131004 | 64 | 154 | 0.0 | 3.0 | 0.00 | 0.00 | 0.00 | 86 | 1023.1 |
| 20260830130504 | 63 | 154 | 0.0 | 3.0 | 0.00 | 0.00 | 0.00 | 86 | 1023.1 |
| 20260830130004 | 63 | 152 | 0.0 | 3.0 | 0.00 | 0.00 | 0.00 | 86 | 1023.1 |
| 20260830125525 | 63 | 167 | 0.0 | 1.0 | 0.00 | 0.00 | 0.00 | 86 | 1023.2 |
| 20260830125004 | 63 | 171 | 0.0 | 1.0 | 0.00 | 0.00 | 0.00 | 86 | 1023.2 |
| 20260830124504 | 62 | 158 | 0.0 | 3.0 | 0.00 | 0.00 | 0.00 | 86 | 1023.2 |
| 20260830124003 | 62 | 155 | 0.0 | 3.0 | 0.00 | 0.00 | 0.00 | 87 | 1023.2 |
| 20260830123524 | 62 | 155 | 0.0 | 3.0 | 0.00 | 0.00 | 0.00 | 87 | 1023.2 |
| 20260830123004 | 62 | 163 | 0.0 | 4.0 | 0.00 | 0.00 | 0.00 | 89 | 1023.3 |
| 20260830122504 | 61 | 165 | 1.0 | 4.0 | 0.00 | 0.00 | 0.00 | 90 | 1023.3 |
| 20260830122003 | 61 | 164 | 1.0 | 4.0 | 0.00 | 0.00 | 0.00 | 88 | 1023.4 |
| 20260830121504 | 60 | 161 | 0.0 | 3.0 | 0.00 | 0.00 | 0.00 | 89 | 1023.4 |
| 20260830121003 | 60 | 146 | 0.0 | 3.0 | 0.00 | 0.00 | 0.00 | 89 | 1023.3 |
| 20260830120503 | 60 | 133 | 0.0 | 3.0 | 0.00 | 0.00 | 0.00 | 88 | 1023.4 |
| 20260830120004 | 59 | 132 | 0.0 | 3.0 | 0.00 | 0.00 | 0.00 | 89 | 1023.4 |
| 20260830115504 | 59 | 0 | 0.0 | 0.0 | 0.00 | 0.00 | 0.00 | 89 | 1023.3 |
| 20260830115004 | 59 | 0 | 0.0 | 0.0 | 0.00 | 0.00 | 0.00 | 89 | 1023.4 |
| 20260830114504 | 59 | 0 | 0.0 | 0.0 | 0.00 | 0.00 | 0.00 | 89 | 1023.5 |
| 20260830114004 | 59 | 0 | 0.0 | 0.0 | 0.00 | 0.00 | 0.00 | 89 | 1023.6 |
| 20260830113504 | 59 | 0 | 0.0 | 0.0 | 0.00 | 0.00 | 0.00 | 90 | 1023.6 |
| 20260830113004 | 59 | 0 | 0.0 | 0.0 | 0.00 | 0.00 | 0.00 | 91 | 1023.6 |
| 20260830112525 | 59 | 0 | 0.0 | 0.0 | 0.00 | 0.00 | 0.00 | 90 | 1023.6 |
| 20260830112025 | 59 | 0 | 0.0 | 0.0 | 0.00 | 0.00 | 0.00 | 90 | 1023.6 |
| 20260830111503 | 59 | 0 | 0.0 | 0.0 | 0.00 | 0.00 | 0.00 | 89 | 1023.6 |
| 20260830111024 | 59 | 0 | 0.0 | 0.0 | 0.00 | 0.00 | 0.00 | 90 | 1023.7 |
| 20260830110504 | 59 | 0 | 0.0 | 0.0 | 0.00 | 0.00 | 0.00 | 87 | 1023.7 |
| 20260830110004 | 59 | 0 | 0.0 | 0.0 | 0.00 | 0.00 | 0.00 | 87 | 1023.7 |
| 20260830105504 | 59 | 0 | 0.0 | 0.0 | 0.00 | 0.00 | 0.00 | 87 | 1023.6 |
| 20260830105004 | 59 | 0 | 0.0 | 0.0 | 0.00 | 0.00 | 0.00 | 88 | 1023.6 |
| 20260830104504 | 59 | 0 | 0.0 | 0.0 | 0.00 | 0.00 | 0.00 | 88 | 1023.7 |
| 20260830104004 | 59 | 0 | 0.0 | 0.0 | 0.00 | 0.00 | 0.00 | 87 | 1023.7 |
| 20260830103503 | 59 | 0 | 0.0 | 0.0 | 0.00 | 0.00 | 0.00 | 87 | 1023.7 |
| 20260830103004 | 60 | 0 | 0.0 | 0.0 | 0.00 | 0.00 | 0.00 | 86 | 1023.8 |
| 20260830102504 | 60 | 0 | 0.0 | 0.0 | 0.00 | 0.00 | 0.00 | 86 | 1023.7 |
| 20260830102004 | 60 | 0 | 0.0 | 0.0 | 0.00 | 0.00 | 0.00 | 87 | 1023.7 |
| 20260830101524 | 60 | 0 | 0.0 | 0.0 | 0.00 | 0.00 | 0.00 | 86 | 1023.7 |
| 20260830101024 | 60 | 0 | 0.0 | 0.0 | 0.00 | 0.00 | 0.00 | 87 | 1023.6 |
| 20260830100504 | 60 | 0 | 0.0 | 0.0 | 0.00 | 0.00 | 0.00 | 86 | 1023.7 |
| 20260830100024 | 60 | 0 | 0.0 | 0.0 | 0.00 | 0.00 | 0.00 | 87 | 1023.6 |
| 20260830095503 | 60 | 0 | 0.0 | 0.0 | 0.00 | 0.00 | 0.00 | 86 | 1023.6 |
| 20260830095003 | 60 | 0 | 0.0 | 0.0 | 0.00 | 0.00 | 0.00 | 86 | 1023.6 |
| 20260830094503 | 60 | 0 | 0.0 | 0.0 | 0.00 | 0.00 | 0.00 | 87 | 1023.6 |
| 20260830094024 | 60 | 0 | 0.0 | 0.0 | 0.00 | 0.00 | 0.00 | 86 | 1023.7 |
| 20260830093503 | 60 | 0 | 0.0 | 0.0 | 0.00 | 0.00 | 0.00 | 87 | 1023.7 |
| 20260830093004 | 60 | 0 | 0.0 | 0.0 | 0.00 | 0.00 | 0.00 | 88 | 1023.7 |
| 20260830092503 | 60 | 0 | 0.0 | 0.0 | 0.00 | 0.00 | 0.00 | 88 | 1023.8 |
| 20260830092003 | 60 | 0 | 0.0 | 0.0 | 0.00 | 0.00 | 0.00 | 87 | 1023.7 |
| 20260830091503 | 60 | 0 | 0.0 | 0.0 | 0.00 | 0.00 | 0.00 | 88 | 1023.7 |
| 20260830091025 | 60 | 0 | 0.0 | 0.0 | 0.00 | 0.00 | 0.00 | 89 | 1023.7 |
| 20260830090503 | 60 | 0 | 0.0 | 0.0 | 0.00 | 0.00 | 0.00 | 88 | 1023.7 |
| 20260830090004 | 60 | 0 | 0.0 | 0.0 | 0.00 | 0.00 | 0.00 | 88 | 1023.7 |
| 20260830085503 | 60 | 0 | 0.0 | 0.0 | 0.00 | 0.00 | 0.00 | 87 | 1023.7 |
| 20260830085003 | 60 | 0 | 0.0 | 0.0 | 0.00 | 0.00 | 0.00 | 89 | 1023.9 |
| 20260830084503 | 60 | 0 | 0.0 | 0.0 | 0.00 | 0.00 | 0.00 | 88 | 1023.9 |
| 20260830084003 | 60 | 0 | 0.0 | 0.0 | 0.00 | 0.00 | 0.00 | 89 | 1023.9 |
| 20260830083503 | 60 | 102 | 0.0 | 1.0 | 0.00 | 0.00 | 0.00 | 90 | 1024.0 |
| 20260830083003 | 60 | 102 | 0.0 | 3.0 | 0.00 | 0.00 | 0.00 | 89 | 1024.0 |
| 20260830082503 | 59 | 102 | 0.0 | 3.0 | 0.00 | 0.00 | 0.00 | 89 | 1023.9 |
| 20260830082024 | 60 | 102 | 0.0 | 1.0 | 0.00 | 0.00 | 0.00 | 91 | 1024.0 |
| 20260830081503 | 60 | 0 | 0.0 | 0.0 | 0.00 | 0.00 | 0.00 | 91 | 1024.0 |
| 20260830081003 | 60 | 0 | 0.0 | 0.0 | 0.00 | 0.00 | 0.00 | 92 | 1024.1 |
| 20260830080503 | 60 | 0 | 0.0 | 0.0 | 0.00 | 0.00 | 0.00 | 91 | 1024.1 |
| 20260830080003 | 60 | 102 | 0.0 | 1.0 | 0.00 | 0.00 | 0.00 | 91 | 1024.1 |
| 20260830075504 | 60 | 102 | 0.0 | 1.0 | 0.00 | 0.00 | 0.00 | 89 | 1024.2 |
| 20260830075003 | 60 | 0 | 0.0 | 0.0 | 0.00 | 0.00 | 0.00 | 90 | 1024.1 |
| 20260830074503 | 60 | 0 | 0.0 | 0.0 | 0.00 | 0.00 | 0.00 | 89 | 1024.2 |
| 20260830074003 | 60 | 0 | 0.0 | 0.0 | 0.00 | 0.00 | 0.00 | 89 | 1024.3 |
| 20260830073503 | 60 | 0 | 0.0 | 0.0 | 0.00 | 0.00 | 0.00 | 89 | 1024.2 |
| 20260830073004 | 60 | 0 | 0.0 | 0.0 | 0.00 | 0.00 | 0.00 | 89 | 1024.3 |
| 20260830072503 | 60 | 0 | 0.0 | 0.0 | 0.00 | 0.00 | 0.00 | 90 | 1024.4 |
| 20260830072003 | 60 | 0 | 0.0 | 0.0 | 0.00 | 0.00 | 0.00 | 91 | 1024.4 |
| 20260830071503 | 60 | 102 | 0.0 | 1.0 | 0.00 | 0.00 | 0.00 | 91 | 1024.4 |
| 20260830071003 | 60 | 102 | 0.0 | 1.0 | 0.00 | 0.00 | 0.00 | 92 | 1024.3 |
| 20260830070503 | 60 | 102 | 0.0 | 1.0 | 0.00 | 0.00 | 0.00 | 91 | 1024.1 |
| 20260830070003 | 60 | 102 | 0.0 | 1.0 | 0.00 | 0.00 | 0.00 | 91 | 1024.0 |
| 20260830065503 | 59 | 102 | 0.0 | 1.0 | 0.00 | 0.00 | 0.00 | 91 | 1023.9 |
| 20260830065003 | 59 | 102 | 0.0 | 1.0 | 0.00 | 0.00 | 0.00 | 91 | 1023.9 |
| 20260830064503 | 59 | 0 | 0.0 | 0.0 | 0.00 | 0.00 | 0.00 | 91 | 1024.1 |
| 20260830064003 | 59 | 0 | 0.0 | 0.0 | 0.00 | 0.00 | 0.00 | 90 | 1024.1 |
| 20260830063503 | 59 | 0 | 0.0 | 0.0 | 0.00 | 0.00 | 0.00 | 91 | 1024.2 |
| 20260830063003 | 59 | 0 | 0.0 | 0.0 | 0.00 | 0.00 | 0.00 | 92 | 1024.1 |
| 20260830062503 | 59 | 0 | 0.0 | 0.0 | 0.00 | 0.00 | 0.00 | 91 | 1024.2 |
| 20260830062003 | 59 | 0 | 0.0 | 0.0 | 0.00 | 0.00 | 0.00 | 91 | 1024.1 |
| 20260830061503 | 58 | 0 | 0.0 | 0.0 | 0.00 | 0.00 | 0.00 | 92 | 1024.1 |
| 20260830061003 | 58 | 0 | 0.0 | 0.0 | 0.00 | 0.00 | 0.00 | 92 | 1024.1 |
| 20260830060503 | 58 | 0 | 0.0 | 0.0 | 0.00 | 0.00 | 0.00 | 93 | 1024.1 |
| 20260830060003 | 58 | 102 | 0.0 | 1.0 | 0.00 | 0.00 | 0.00 | 93 | 1024.1 |
| 20260830055503 | 58 | 102 | 0.0 | 1.0 | 0.00 | 0.00 | 0.00 | 93 | 1024.2 |
| 20260830055003 | 58 | 102 | 0.0 | 1.0 | 0.00 | 0.00 | 0.00 | 93 | 1024.2 |
| 20260830054503 | 58 | 0 | 0.0 | 0.0 | 0.00 | 0.00 | 0.00 | 93 | 1024.2 |
| 20260830054003 | 58 | 0 | 0.0 | 0.0 | 0.00 | 0.00 | 0.00 | 93 | 1024.2 |
| 20260830053503 | 58 | 0 | 0.0 | 0.0 | 0.00 | 0.00 | 0.00 | 94 | 1024.2 |
| 20260830053003 | 58 | 0 | 0.0 | 0.0 | 0.00 | 0.00 | 0.00 | 93 | 1024.2 |
| 20260830052503 | 58 | 0 | 0.0 | 0.0 | 0.00 | 0.00 | 0.00 | 93 | 1024.2 |
| 20260830052003 | 58 | 0 | 0.0 | 0.0 | 0.00 | 0.00 | 0.00 | 93 | 1024.3 |
| 20260830051503 | 58 | 0 | 0.0 | 0.0 | 0.00 | 0.00 | 0.00 | 92 | 1024.3 |
| 20260830051024 | 58 | 0 | 0.0 | 0.0 | 0.00 | 0.00 | 0.00 | 92 | 1024.3 |
| 20260830050524 | 58 | 0 | 0.0 | 0.0 | 0.00 | 0.00 | 0.00 | 92 | 1024.3 |
| 20260830050024 | 58 | 0 | 0.0 | 0.0 | 0.00 | 0.00 | 0.00 | 92 | 1024.3 |
| 20260830045503 | 59 | 0 | 0.0 | 0.0 | 0.00 | 0.00 | 0.00 | 92 | 1024.3 |
| 20260830045003 | 59 | 0 | 0.0 | 0.0 | 0.00 | 0.00 | 0.00 | 92 | 1024.4 |
| 20260830044503 | 59 | 0 | 0.0 | 0.0 | 0.00 | 0.00 | 0.00 | 92 | 1024.4 |
| 20260830044024 | 59 | 0 | 0.0 | 0.0 | 0.00 | 0.00 | 0.00 | 92 | 1024.3 |
| 20260830043503 | 59 | 0 | 0.0 | 0.0 | 0.00 | 0.00 | 0.00 | 92 | 1024.3 |
| 20260830043003 | 59 | 0 | 0.0 | 0.0 | 0.00 | 0.00 | 0.00 | 91 | 1024.3 |
| 20260830042503 | 59 | 0 | 0.0 | 0.0 | 0.00 | 0.00 | 0.00 | 91 | 1024.3 |
| 20260830042003 | 59 | 0 | 0.0 | 0.0 | 0.00 | 0.00 | 0.00 | 91 | 1024.3 |
| 20260830041503 | 59 | 0 | 0.0 | 0.0 | 0.00 | 0.00 | 0.00 | 92 | 1024.3 |
| 20260830041003 | 59 | 0 | 0.0 | 0.0 | 0.00 | 0.00 | 0.00 | 91 | 1024.3 |
| 20260830040503 | 59 | 0 | 0.0 | 0.0 | 0.00 | 0.00 | 0.00 | 92 | 1024.2 |
| 20260830040004 | 60 | 102 | 0.0 | 1.0 | 0.00 | 0.00 | 0.00 | 91 | 1024.3 |
| 20260830035505 | 60 | 102 | 0.0 | 1.0 | 0.00 | 0.00 | 0.00 | 91 | 1024.0 |
| 20260830035005 | 60 | 0 | 0.0 | 0.0 | 0.00 | 0.00 | 0.00 | 91 | 1024.0 |
| 20260830034526 | 60 | 0 | 0.0 | 0.0 | 0.00 | 0.00 | 0.00 | 90 | 1024.0 |
| 20260830034026 | 60 | 0 | 0.0 | 0.0 | 0.00 | 0.00 | 0.00 | 91 | 1024.2 |
| 20260830033526 | 60 | 0 | 0.0 | 0.0 | 0.00 | 0.00 | 0.00 | 90 | 1024.2 |
| 20260830033005 | 60 | 0 | 0.0 | 0.0 | 0.00 | 0.00 | 0.00 | 91 | 1024.3 |
| 20260830032505 | 60 | 0 | 0.0 | 0.0 | 0.00 | 0.00 | 0.00 | 91 | 1024.1 |
| 20260830032005 | 60 | 0 | 0.0 | 0.0 | 0.00 | 0.00 | 0.00 | 91 | 1024.3 |
| 20260830031505 | 60 | 0 | 0.0 | 0.0 | 0.00 | 0.00 | 0.00 | 91 | 1024.3 |
| 20260830031026 | 60 | 0 | 0.0 | 0.0 | 0.00 | 0.00 | 0.00 | 91 | 1024.3 |
| 20260830030505 | 60 | 102 | 0.0 | 1.0 | 0.00 | 0.00 | 0.00 | 90 | 1024.3 |
| 20260830030005 | 60 | 0 | 0.0 | 0.0 | 0.00 | 0.00 | 0.00 | 91 | 1024.4 |
| 20260830025505 | 60 | 0 | 0.0 | 0.0 | 0.00 | 0.00 | 0.00 | 90 | 1024.4 |
| 20260830025005 | 60 | 0 | 0.0 | 0.0 | 0.00 | 0.00 | 0.00 | 90 | 1024.4 |